Location: Brienzwiler
(46.7508°N, 8.1014°E)
Time: 01:23:25
(UTC+00:00)

Cosmos 1980 - Pass Details

Date: 05 July 2020
Orbit: 839 x 847 km, 71.0° (Epoch: 11 August)

Event Time Altitude Azimuth Distance (km) Brightness Sun altitude
Exits shadow 21:56:26 24° 187° (S) 1,676 4.8 -17.3°
Maximum altitude 21:59:51 65° 112° (ESE) 920 3.7 -17.5°
Drops below altitude 10° 22:05:27 10° 32° (NNE) 2,465 6.6 -17.9°
Sets 22:07:55 0° 30° (NNE) 3,405 7.4 -18.0°
